Location: Albuquerque Trailhead
(34.7934°N, 106.3736°W)
Time: 00:21:41
(UTC+00:00)

SeaSat 1 - Pass Details

Date: 20 June 2021
Orbit: 745 x 746 km, 108.0° (Epoch: 27 July)

Event Time Altitude Azimuth Distance (km) Brightness Sun altitude
Rises 09:12:09 0° 35° (NE) 3,192 7.1 -24.7°
Reaches altitude 10° 09:14:37 10° 45° (NE) 2,265 6.0 -24.4°
Maximum altitude 09:19:04 34° 109° (ESE) 1,224 3.6 -23.9°
Enters shadow 09:20:26 29° 141° (SE) 1,357 3.6 -23.7°
